Spriggs Payne Airport

Jump to: basic info | weather | frequencies | runways | comments

Related pages: nearby airports | nearby navaids | notams | map

Basic information (top)

Codes: MLW GLMR
Location: lon 6.289060, lat -10.758700, elev 25 ft / 8 m msl
Status: medium_airport
Scheduled airline service: yes
Links: Wikipedia Mobile

Weather (top)

Current conditions for Roberts International Airport 24nm (44km) E (rec'd 2014/04/23 08:30Z):

GLRB 230830Z 04005KT 7000 BKN013 FEW024 CB 26/25 Q1013 RMK CB-SE BRVC

Airport forecast for Roberts International Airport 24nm (44km) E (rec'd 2014/04/23 06:54Z):

TAF TAF GLRB 230400Z 2306/2412 24010KT 9999 BKN018 
      BECMG 2307/2309 04005KT 8000 SCT014 BKN100 
      TEMPO 2310/2314 23012KT 9999 SCT022 
      BECMG 2315/2317 32008KT 8000 RA/TSRA

Frequencies (top)

Verify before use: may be inaccurate or out of date.

APP: 124.5 MHz (ROBERTS APP)
TWR: 118.7 MHz (SPRIGGS TWR)

Runways (top)

05/23: 6,000 x 100 ft (1,829 x 30 m) — paved — lighted — threshold 05 displaced 200 ft (61 m) — threshold 23 displaced 200 ft (61 m)

Latest comments (top)

No comments yet for Spriggs Payne Airport

More... (top)

See also NOTAMs and nearby airports and navaids, or visit the Spriggs Payne Airport page at the main OurAirports website..